User: anonymous   Login
Location: Napier
(39.4830°S, 176.9170°E)
Time: 08:14:50
(UTC+13:00)
Language:

Cosmos 2263 Rocket - Orbit

View from above orbital plane
View from above orbital plane
View from above satellite
View from above satellite

Ground track
Ground track

The orbit data is extracted from the following two-line orbital elements,

1 22803U 93059B   19078.38410301 -.00000046 +00000-0 +11370-5 0  9994
2 22803 070.9925 340.3686 0015585 136.4721 223.7635 14.16807424318701
Epoch (UTC): 19 March 2019 09:13:06
Eccentricity: 0.0015585
inclination: 70.9925°
perigee height: 825 km
apogee height: 847 km
right ascension of ascending node: 340.3686°
argument of perigee: 136.4721°
revolutions per day: 14.16807424
mean anomaly at epoch: 223.7635°
orbit number at epoch: 31870

The dashed part of the orbit path shows where the satellite is in the earth's shadow,  

DLR